Location: Turtle Rock Observatory
(36.6913°N, 81.9708°W)
Time: 23:33:09
(UTC-04:00)

TITAN 4B R/B - Visible Passes

Search period start: 22 July 2014 00:00
Search period end: 01 August 2014 00:00
Orbit: 469 x 663 km, 57.0° (Epoch: 21 June)

Date Brightness Start Highest point End Pass type
(mag) Time Alt. Az. Time Alt. Az. Time Alt. Az.
23 Jul 4.1 05:04:25 10° SSE 05:07:16 16° ESE 05:10:09 10° E visible
24 Jul 3.5 05:03:15 10° S 05:07:04 24° ESE 05:10:53 10° ENE visible
25 Jul 2.8 05:03:21 14° S 05:06:53 36° ESE 05:11:15 10° ENE visible
26 Jul 2.1 05:03:39 20° SSW 05:06:45 55° SE 05:11:25 10° NE visible
27 Jul 1.7 05:03:53 25° SW 05:06:40 83° SE 05:11:27 10° NE visible
28 Jul 3.9 03:28:02 15° ESE 03:28:02 15° ESE 03:30:19 10° E visible
28 Jul 1.8 05:04:03 27° WSW 05:06:37 67° NW 05:11:23 10° NE visible
29 Jul 3.5 03:28:08 22° ESE 03:28:08 22° ESE 03:31:04 10° ENE visible
29 Jul 2.3 05:04:08 24° WSW 05:06:37 46° NW 05:11:13 10° NNE visible
30 Jul 3.1 03:28:10 31° E 03:28:10 31° E 03:31:26 10° ENE visible
30 Jul 2.8 05:04:10 20° W 05:06:41 33° NW 05:11:00 10° NNE visible
31 Jul 2.7 03:28:08 42° ENE 03:28:08 42° ENE 03:31:35 10° NE visible
31 Jul 3.3 05:04:08 16° W 05:06:47 24° NW 05:10:41 10° NNE visible
